Terminal Aerodrome Forecast
Issued by NWS

Home | Current Version | Previous Version | Text Only | Print | Product List | Glossary On
Versions: 1 2 3 4 5 6 7 8 9 10 11 12 13 14 15 16
000
FTUS44 KLZK 051400 AAB
TAFHRO
TAF AMD
KHRO 051415Z 0514/0612 13008KT P6SM SCT025 SCT250
      TEMPO 0514/0517 BKN020
     FM051700 16012G22KT P6SM SCT060 SCT250
     FM060100 15008KT P6SM SCT250=

USA.gov is the U.S. government's official web portal to all federal, state and local government web resources and services.